| time (UTC) | temp F | wind direction | speed knots | gust knots | rain 1hr in | rain 24hr in | rain mn in | humidity % | barometer mb |
| 20260507081443 | 48 | 98 | 1.7 | 1.7 | 0.00 | 0.00 | 0.00 | 82 | 1012.1 |
| 20260507080941 | 48 | 80 | 1.7 | 1.7 | 0.00 | 0.00 | 0.00 | 83 | 1012.1 |
| 20260507080436 | 49 | 136 | 0.9 | 2.6 | 0.00 | 0.00 | 0.00 | 84 | 1012.0 |
| 20260507075932 | 49 | 37 | 1.7 | 1.7 | 0.00 | 0.00 | 0.00 | 81 | 1012.0 |
| 20260507075428 | 50 | 70 | 1.7 | 2.6 | 0.00 | 0.00 | 0.00 | 78 | 1012.5 |
| 20260507074925 | 50 | 84 | 0.9 | 1.7 | 0.00 | 0.00 | 0.00 | 73 | 1012.2 |
| 20260507074422 | 50 | 97 | 2.6 | 2.6 | 0.00 | 0.00 | 0.00 | 73 | 1012.0 |
| 20260507073920 | 50 | 103 | 2.6 | 2.6 | 0.00 | 0.00 | 0.00 | 75 | 1012.3 |
| 20260507073416 | 49 | 74 | 4.3 | 4.3 | 0.00 | 0.00 | 0.00 | 80 | 1012.2 |
| 20260507072913 | 49 | 91 | 1.7 | 2.6 | 0.00 | 0.00 | 0.00 | 86 | 1012.3 |
| 20260507072411 | 50 | 115 | 0.9 | 1.7 | 0.00 | 0.00 | 0.00 | 89 | 1012.2 |
| 20260507071908 | 50 | 88 | 0.9 | 1.7 | 0.00 | 0.00 | 0.00 | 89 | 1012.0 |
| 20260507071405 | 50 | 59 | 0.9 | 1.7 | 0.00 | 0.00 | 0.00 | 89 | 1012.3 |
| 20260507070901 | 50 | 68 | 0.9 | 1.7 | 0.00 | 0.00 | 0.00 | 87 | 1012.4 |
| 20260507070359 | 50 | 49 | 2.6 | 2.6 | 0.00 | 0.00 | 0.00 | 86 | 1012.4 |
| 20260507065855 | 50 | 56 | 1.7 | 1.7 | 0.00 | 0.00 | 0.00 | 84 | 1012.4 |
| 20260507065352 | 51 | 59 | 1.7 | 1.7 | 0.00 | 0.00 | 0.00 | 84 | 1012.5 |
| 20260507064849 | 51 | 57 | 1.7 | 3.5 | 0.00 | 0.00 | 0.00 | 84 | 1012.3 |
| 20260507064347 | 51 | 64 | 1.7 | 1.7 | 0.00 | 0.00 | 0.00 | 86 | 1012.5 |
| 20260507063845 | 50 | 80 | 0.9 | 3.5 | 0.00 | 0.00 | 0.00 | 88 | 1012.5 |
| 20260507063341 | 51 | 78 | 2.6 | 2.6 | 0.00 | 0.00 | 0.00 | 88 | 1012.2 |
| 20260507062838 | 51 | 63 | 0.0 | 1.7 | 0.00 | 0.00 | 0.00 | 88 | 1012.5 |
| 20260507062335 | 51 | 40 | 1.7 | 1.7 | 0.00 | 0.00 | 0.00 | 87 | 1012.4 |
| 20260507061833 | 51 | 63 | 1.7 | 2.6 | 0.00 | 0.00 | 0.00 | 85 | 1012.4 |
| 20260507061331 | 51 | 79 | 2.6 | 5.2 | 0.00 | 0.00 | 0.00 | 86 | 1012.3 |
| 20260507060829 | 51 | 181 | 1.7 | 1.7 | 0.00 | 0.00 | 0.00 | 90 | 1012.4 |
| 20260507060325 | 51 | 57 | 1.7 | 2.6 | 0.00 | 0.00 | 0.00 | 90 | 1012.1 |
| 20260507055822 | 51 | 46 | 1.7 | 1.7 | 0.00 | 0.00 | 0.00 | 90 | 1012.2 |
| 20260507055317 | 51 | 69 | 1.7 | 1.7 | 0.00 | 0.00 | 0.00 | 89 | 1012.0 |
| 20260507054814 | 51 | 40 | 1.7 | 1.7 | 0.00 | 0.00 | 0.00 | 89 | 1012.2 |
| 20260507054310 | 51 | 98 | 0.0 | 1.7 | 0.00 | 0.00 | 0.00 | 88 | 1012.1 |
| 20260507053808 | 51 | 44 | 0.0 | 1.7 | 0.00 | 0.00 | 0.00 | 89 | 1012.1 |
| 20260507053306 | 51 | 86 | 2.6 | 3.5 | 0.00 | 0.00 | 0.00 | 89 | 1012.2 |
| 20260507052805 | 51 | 61 | 1.7 | 2.6 | 0.00 | 0.00 | 0.00 | 88 | 1011.7 |
| 20260507052300 | 52 | 42 | 0.0 | 1.7 | 0.00 | 0.00 | 0.00 | 89 | 1012.0 |
| 20260507051759 | 52 | 88 | 1.7 | 1.7 | 0.00 | 0.00 | 0.00 | 88 | 1011.9 |
| 20260507051255 | 52 | 83 | 1.7 | 2.6 | 0.00 | 0.00 | 0.00 | 87 | 1012.1 |
| 20260507050752 | 52 | 10 | 1.7 | 3.5 | 0.00 | 0.00 | 0.00 | 88 | 1012.2 |
| 20260507050249 | 52 | 112 | 0.9 | 1.7 | 0.00 | 0.00 | 0.00 | 90 | 1012.2 |
| 20260507045746 | 52 | 0 | 0.0 | 2.6 | 0.00 | 0.00 | 0.00 | 91 | 1012.0 |
| 20260507045242 | 52 | 69 | 1.7 | 2.6 | 0.00 | 0.00 | 0.00 | 90 | 1011.8 |
| 20260507044739 | 52 | 88 | 1.7 | 3.5 | 0.00 | 0.00 | 0.00 | 89 | 1012.1 |
| 20260507044235 | 52 | 65 | 1.7 | 2.6 | 0.00 | 0.00 | 0.00 | 89 | 1012.1 |
| 20260507043732 | 53 | 126 | 0.9 | 3.5 | 0.00 | 0.00 | 0.00 | 88 | 1012.3 |
| 20260507043229 | 53 | 141 | 0.9 | 1.7 | 0.00 | 0.00 | 0.00 | 87 | 1012.0 |
| 20260507042725 | 53 | 163 | 0.9 | 1.7 | 0.00 | 0.00 | 0.00 | 85 | 1012.0 |
| 20260507042220 | 54 | 92 | 2.6 | 3.5 | 0.00 | 0.00 | 0.00 | 83 | 1011.9 |
| 20260507041718 | 54 | 80 | 0.0 | 4.3 | 0.00 | 0.00 | 0.00 | 80 | 1011.7 |
| 20260507041214 | 55 | 105 | 3.5 | 3.5 | 0.00 | 0.00 | 0.00 | 79 | 1011.8 |
| 20260507040711 | 55 | 93 | 2.6 | 2.6 | 0.00 | 0.00 | 0.00 | 78 | 1011.7 |
| 20260507040207 | 55 | 95 | 2.6 | 3.5 | 0.00 | 0.00 | 0.00 | 78 | 1011.7 |
| 20260507035703 | 55 | 71 | 1.7 | 5.2 | 0.00 | 0.00 | 0.00 | 78 | 1011.7 |
| 20260507035159 | 55 | 105 | 1.7 | 6.1 | 0.00 | 0.00 | 0.00 | 78 | 1011.7 |
| 20260507034656 | 55 | 107 | 2.6 | 4.3 | 0.00 | 0.00 | 0.00 | 78 | 1011.6 |
| 20260507034154 | 55 | 83 | 1.7 | 3.5 | 0.00 | 0.00 | 0.00 | 79 | 1011.5 |
| 20260507033652 | 55 | 104 | 2.6 | 2.6 | 0.00 | 0.00 | 0.00 | 78 | 1011.5 |
| 20260507033149 | 55 | 71 | 1.7 | 5.2 | 0.00 | 0.00 | 0.00 | 76 | 1011.4 |
| 20260507032646 | 55 | 340 | 1.7 | 4.3 | 0.00 | 0.00 | 0.00 | 77 | 1011.6 |
| 20260507032142 | 55 | 123 | 1.7 | 3.5 | 0.00 | 0.00 | 0.00 | 79 | 1011.7 |
| 20260507031639 | 55 | 60 | 1.7 | 1.7 | 0.00 | 0.00 | 0.00 | 79 | 1011.8 |
| 20260507031135 | 55 | 138 | 0.9 | 2.6 | 0.00 | 0.00 | 0.00 | 78 | 1011.8 |
| 20260507030632 | 56 | 209 | 0.9 | 3.5 | 0.00 | 0.00 | 0.00 | 77 | 1011.5 |
| 20260507030130 | 56 | 130 | 1.7 | 3.5 | 0.00 | 0.00 | 0.00 | 75 | 1011.6 |
| 20260507025627 | 56 | 42 | 1.7 | 3.5 | 0.00 | 0.00 | 0.00 | 75 | 1011.8 |
| 20260507025124 | 56 | 104 | 3.5 | 3.5 | 0.00 | 0.00 | 0.00 | 76 | 1011.4 |
| 20260507024622 | 56 | 69 | 1.7 | 6.1 | 0.00 | 0.00 | 0.00 | 77 | 1011.2 |
| 20260507024119 | 56 | 111 | 3.5 | 4.3 | 0.00 | 0.00 | 0.00 | 79 | 1011.4 |
| 20260507023614 | 56 | 146 | 0.9 | 5.2 | 0.00 | 0.00 | 0.00 | 79 | 1011.5 |
| 20260507023112 | 56 | 157 | 1.7 | 7.0 | 0.00 | 0.00 | 0.00 | 80 | 1011.2 |
| 20260507022609 | 57 | 12 | 4.3 | 7.8 | 0.00 | 0.00 | 0.00 | 80 | 1011.1 |
| 20260507022104 | 57 | 106 | 3.5 | 4.3 | 0.00 | 0.00 | 0.00 | 81 | 1011.2 |
| 20260507021601 | 57 | 210 | 3.5 | 5.2 | 0.00 | 0.00 | 0.00 | 81 | 1011.1 |
| 20260507021057 | 57 | 80 | 2.6 | 3.5 | 0.00 | 0.00 | 0.00 | 81 | 1011.2 |
| 20260507020555 | 57 | 92 | 2.6 | 5.2 | 0.00 | 0.00 | 0.00 | 80 | 1011.5 |
| 20260507020051 | 57 | 119 | 1.7 | 3.5 | 0.00 | 0.00 | 0.00 | 80 | 1011.3 |
| 20260507015550 | 57 | 99 | 1.7 | 5.2 | 0.00 | 0.00 | 0.00 | 80 | 1011.2 |
| 20260507015047 | 57 | 114 | 4.3 | 4.3 | 0.00 | 0.00 | 0.00 | 82 | 1011.7 |
| 20260507014543 | 58 | 92 | 0.9 | 2.6 | 0.00 | 0.00 | 0.00 | 81 | 1011.6 |
| 20260507014039 | 58 | 95 | 3.5 | 5.2 | 0.00 | 0.00 | 0.00 | 82 | 1011.7 |
| 20260507013536 | 58 | 99 | 3.5 | 3.5 | 0.00 | 0.00 | 0.00 | 83 | 1011.3 |
| 20260507013033 | 58 | 79 | 1.7 | 2.6 | 0.00 | 0.00 | 0.00 | 84 | 1011.5 |
| 20260507012530 | 58 | 99 | 1.7 | 4.3 | 0.00 | 0.00 | 0.00 | 84 | 1011.4 |
| 20260507012026 | 58 | 103 | 2.6 | 4.3 | 0.00 | 0.00 | 0.00 | 85 | 1011.2 |
| 20260507011524 | 58 | 72 | 1.7 | 3.5 | 0.00 | 0.00 | 0.00 | 87 | 1011.2 |
| 20260507011020 | 58 | 102 | 1.7 | 2.6 | 0.00 | 0.00 | 0.00 | 88 | 1011.5 |
| 20260507010514 | 58 | 50 | 1.7 | 1.7 | 0.00 | 0.00 | 0.00 | 88 | 1011.4 |
| 20260507010011 | 58 | 72 | 1.7 | 1.7 | 0.00 | 0.00 | 0.00 | 89 | 1011.1 |
| 20260507005509 | 59 | 56 | 2.6 | 2.6 | 0.00 | 0.00 | 0.00 | 88 | 1010.9 |
| 20260507005005 | 59 | 52 | 1.7 | 2.6 | 0.00 | 0.00 | 0.00 | 86 | 1011.1 |
| 20260507004502 | 59 | 34 | 0.0 | 2.6 | 0.00 | 0.00 | 0.00 | 85 | 1011.1 |
| 20260507003959 | 59 | 33 | 1.7 | 1.7 | 0.00 | 0.00 | 0.00 | 83 | 1011.0 |
| 20260507003454 | 59 | 310 | 1.7 | 1.7 | 0.00 | 0.00 | 0.00 | 84 | 1010.7 |
| 20260507002949 | 59 | 311 | 0.0 | 1.7 | 0.00 | 0.00 | 0.00 | 87 | 1010.8 |
| 20260507002447 | 59 | 199 | 0.0 | 1.7 | 0.00 | 0.00 | 0.00 | 84 | 1010.8 |
| 20260507001943 | 59 | 266 | 0.0 | 1.7 | 0.00 | 0.00 | 0.00 | 84 | 1010.9 |
| 20260507001440 | 59 | 17 | 0.0 | 2.6 | 0.00 | 0.00 | 0.00 | 85 | 1010.9 |
| 20260507000937 | 60 | 216 | 0.0 | 2.6 | 0.00 | 0.00 | 0.00 | 85 | 1010.7 |
| 20260507000435 | 60 | 69 | 0.9 | 3.5 | 0.00 | 0.00 | 0.00 | 87 | 1010.5 |
| 20260506235928 | 60 | 214 | 0.0 | 1.7 | 0.00 | 0.00 | 0.00 | 87 | 1010.1 |
| 20260506235426 | 60 | 209 | 0.0 | 1.7 | 0.00 | 0.00 | 0.00 | 87 | 1009.9 |
| 20260506234921 | 61 | 94 | 0.9 | 1.7 | 0.00 | 0.00 | 0.00 | 86 | 1009.8 |
| 20260506234420 | 61 | 305 | 1.7 | 3.5 | 0.00 | 0.00 | 0.00 | 87 | 1009.8 |
| 20260506233917 | 62 | 153 | 1.7 | 1.7 | 0.00 | 0.00 | 0.00 | 89 | 1009.5 |
| 20260506233413 | 62 | 149 | 0.9 | 0.9 | 0.00 | 0.00 | 0.00 | 91 | 1009.7 |
| 20260506232910 | 62 | 235 | 0.0 | 3.5 | 0.00 | 0.00 | 0.00 | 92 | 1009.6 |
| 20260506232406 | 63 | 180 | 0.0 | 1.7 | 0.00 | 0.00 | 0.00 | 93 | 1009.3 |
| 20260506231902 | 63 | 77 | 0.0 | 1.7 | 0.00 | 0.00 | 0.00 | 93 | 1009.3 |
| 20260506231400 | 63 | 199 | 0.0 | 1.7 | 0.00 | 0.00 | 0.00 | 93 | 1009.3 |
| 20260506230857 | 63 | 40 | 0.9 | 1.7 | 0.00 | 0.00 | 0.00 | 93 | 1009.3 |
| 20260506230354 | 63 | 72 | 0.0 | 2.6 | 0.00 | 0.00 | 0.00 | 92 | 1009.2 |
| 20260506225850 | 63 | 50 | 1.7 | 1.7 | 0.00 | 0.00 | 0.00 | 92 | 1009.1 |
| 20260506225347 | 63 | 316 | 0.0 | 1.7 | 0.00 | 0.00 | 0.00 | 92 | 1009.5 |
| 20260506224844 | 63 | 122 | 1.7 | 1.7 | 0.00 | 0.00 | 0.00 | 92 | 1009.0 |
| 20260506224342 | 63 | 212 | 0.0 | 2.6 | 0.00 | 0.00 | 0.00 | 92 | 1009.5 |
| 20260506223838 | 63 | 146 | 0.0 | 2.6 | 0.00 | 0.00 | 0.00 | 92 | 1009.2 |
| 20260506223333 | 63 | 210 | 0.0 | 1.7 | 0.00 | 0.00 | 0.00 | 92 | 1009.0 |
| 20260506222831 | 63 | 200 | 1.7 | 3.5 | 0.00 | 0.00 | 0.00 | 92 | 1009.1 |
| 20260506222326 | 64 | 3 | 1.7 | 2.6 | 0.00 | 0.00 | 0.00 | 92 | 1009.1 |
| 20260506221824 | 64 | 31 | 0.0 | 2.6 | 0.00 | 0.00 | 0.00 | 91 | 1009.2 |
| 20260506221321 | 64 | 218 | 2.6 | 2.6 | 0.00 | 0.00 | 0.00 | 90 | 1009.0 |
| 20260506220819 | 64 | 212 | 1.7 | 2.6 | 0.00 | 0.00 | 0.00 | 90 | 1008.7 |
| 20260506220314 | 64 | 250 | 0.9 | 4.3 | 0.00 | 0.00 | 0.00 | 90 | 1008.9 |
| 20260506215810 | 64 | 236 | 2.6 | 5.2 | 0.00 | 0.00 | 0.00 | 89 | 1008.9 |
| 20260506215306 | 65 | 89 | 1.7 | 1.7 | 0.00 | 0.00 | 0.00 | 88 | 1008.6 |
| 20260506214803 | 65 | 228 | 0.0 | 3.5 | 0.00 | 0.00 | 0.00 | 87 | 1008.4 |
| 20260506214259 | 65 | 226 | 1.7 | 1.7 | 0.00 | 0.00 | 0.00 | 86 | 1008.7 |
| 20260506213758 | 65 | 297 | 1.7 | 2.6 | 0.00 | 0.00 | 0.00 | 86 | 1008.6 |
| 20260506213254 | 65 | 55 | 0.0 | 1.7 | 0.00 | 0.00 | 0.00 | 87 | 1008.4 |
| 20260506212752 | 65 | 320 | 1.7 | 1.7 | 0.00 | 0.00 | 0.00 | 86 | 1008.5 |
| 20260506212247 | 65 | 171 | 0.0 | 1.7 | 0.00 | 0.00 | 0.00 | 86 | 1008.2 |
| 20260506211743 | 65 | 313 | 1.7 | 2.6 | 0.00 | 0.00 | 0.00 | 86 | 1008.3 |
| 20260506211239 | 65 | 89 | 0.0 | 1.7 | 0.00 | 0.00 | 0.00 | 86 | 1008.3 |
| 20260506210736 | 65 | 207 | 0.9 | 3.5 | 0.00 | 0.00 | 0.00 | 85 | 1008.2 |
| 20260506210233 | 65 | 241 | 1.7 | 4.3 | 0.00 | 0.00 | 0.00 | 85 | 1008.3 |
| 20260506205730 | 65 | 245 | 1.7 | 5.2 | 0.00 | 0.00 | 0.00 | 85 | 1008.3 |
| 20260506205226 | 66 | 217 | 1.7 | 2.6 | 0.00 | 0.00 | 0.00 | 85 | 1008.3 |
| 20260506204723 | 66 | 216 | 2.6 | 4.3 | 0.00 | 0.00 | 0.00 | 85 | 1008.3 |
| 20260506204220 | 66 | 263 | 0.0 | 2.6 | 0.00 | 0.00 | 0.00 | 85 | 1007.9 |
| 20260506203719 | 66 | 226 | 1.7 | 4.3 | 0.00 | 0.00 | 0.00 | 84 | 1008.1 |
| 20260506203215 | 66 | 325 | 2.6 | 3.5 | 0.00 | 0.00 | 0.00 | 85 | 1008.3 |
| 20260506202713 | 65 | 207 | 4.3 | 6.1 | 0.00 | 0.00 | 0.00 | 85 | 1008.2 |
| 20260506202209 | 65 | 223 | 7.8 | 7.8 | 0.00 | 0.00 | 0.00 | 85 | 1008.2 |
| 20260506201706 | 65 | 210 | 1.7 | 7.0 | 0.00 | 0.00 | 0.00 | 85 | 1008.2 |
| 20260506201203 | 66 | 199 | 1.7 | 3.5 | 0.00 | 0.00 | 0.00 | 86 | 1008.3 |
| 20260506200659 | 65 | 331 | 2.6 | 2.6 | 0.00 | 0.00 | 0.00 | 87 | 1008.2 |
| 20260506200156 | 65 | 170 | 1.7 | 3.5 | 0.00 | 0.00 | 0.00 | 86 | 1008.3 |
| 20260506195653 | 65 | 157 | 0.9 | 5.2 | 0.00 | 0.00 | 0.00 | 87 | 1008.3 |
| 20260506195149 | 64 | 162 | 0.0 | 4.3 | 0.00 | 0.00 | 0.00 | 88 | 1008.0 |
| 20260506194647 | 64 | 314 | 0.9 | 3.5 | 0.00 | 0.00 | 0.00 | 89 | 1008.3 |
| 20260506194142 | 64 | 212 | 3.5 | 4.3 | 0.00 | 0.00 | 0.00 | 90 | 1008.4 |
| 20260506193641 | 64 | 222 | 2.6 | 3.5 | 0.00 | 0.00 | 0.00 | 90 | 1008.4 |
| 20260506193137 | 64 | 173 | 1.7 | 6.1 | 0.00 | 0.00 | 0.00 | 89 | 1008.3 |
| 20260506192634 | 64 | 234 | 2.6 | 5.2 | 0.00 | 0.00 | 0.00 | 89 | 1008.4 |
| 20260506192130 | 64 | 257 | 2.6 | 7.8 | 0.00 | 0.00 | 0.00 | 88 | 1008.3 |
| 20260506191627 | 64 | 204 | 4.3 | 6.1 | 0.00 | 0.00 | 0.00 | 87 | 1008.6 |
| 20260506191123 | 64 | 97 | 0.9 | 3.5 | 0.00 | 0.00 | 0.00 | 88 | 1008.6 |
| 20260506190621 | 64 | 238 | 0.9 | 6.1 | 0.00 | 0.00 | 0.00 | 87 | 1008.8 |
| 20260506190117 | 64 | 354 | 1.7 | 2.6 | 0.00 | 0.00 | 0.00 | 88 | 1008.6 |